Regional Weather Roundup
Issued by NWS

Home | Current Version | Previous Version | Graphics & Text | Print | Product List | Glossary On
Versions: 1 2 3 4 5 6 7 8 9 10 11 12 13 14 15 16 17 18 19 20 21 22 23 24 25 26 27 28 29 30 31 32 33 34 35 36 37 38 39 40 41 42 43 44 45 46 47 48 49 50
000
ASUS43 KMKX 281921
RWRWI

WISCONSIN REGIONAL WEATHER ROUNDUP
NATIONAL WEATHER SERVICE MILWAUKEE/SULLIVAN WI
200 PM CDT FRI AUG 28 2015

NOTE: "FAIR" INDICATES FEW OR NO CLOUDS BELOW 12,000 FEET WITH NO
SIGNIFICANT WEATHER AND/OR OBSTRUCTIONS TO VISIBILITY.

WIZ001-002-006>008-014>016-023>028-282000-
NORTHWEST WISCONSIN

CITY           SKY/WX    TMP DP  RH WIND       PRES   REMARKS
SUPERIOR ARPT  MOSUNNY   78  67  68 W10       29.97R HX  80
ASHLAND        MOSUNNY   80  67  64 SW13G21   29.98F HX  82
HAYWARD        MOSUNNY   75  63  66 S13       30.02F
SIREN          MOSUNNY   78  61  55 SW13      30.01F HX  80
CUMBERLAND     CLOUDY    73  63  68 S10       30.02F
RICE LAKE      CLOUDY    71  63  76 S6        30.04F
CHETEK         CLOUDY   N/A N/A N/A SE6       30.04F
LADYSMITH      CLOUDY    68  62  81 S7        30.07S
EAU CLAIRE     LGT RAIN  66  63  90 SE14      30.03S
MENOMONIE      CLOUDY    69  66  88 E8        30.03F
NEW RICHMOND   PTSUNNY   75  62  63 S12       30.02S
OSCEOLA        MOSUNNY   77  63  62 SE10G17   30.03S
$$

WIZ003>005-009-010-017-018-282000-
NORTH CENTRAL WISCONSIN

CITY           SKY/WX    TMP DP  RH WIND       PRES   REMARKS
MANITOWISH WTR CLOUDY    71  63  77 SW9       30.04S
ARBOR VITAE    CLOUDY    72  63  73 SW7       30.05F
WOODRUFF       CLOUDY    72  63  73 SW7       30.05F
RHINELANDER    CLOUDY    70  61  73 SW8       30.08S
EAGLE RIVER    CLOUDY    71  60  67 SW8       30.05F
LAND O LAKES   CLOUDY    72  61  68 SW10G16   30.05F
PHILLIPS       MOSUNNY   68  62  80 SW12      30.06S
TOMAHAWK       CLOUDY    68  61  78 S3        30.08S
MEDFORD        DRIZZLE   63  62  94 CALM      30.09S
MERRILL        CLOUDY    67  62  84 SW8       30.09S
$$

WIZ029-030-035-036-043>047-282000-
CENTRAL WISCONSIN

CITY           SKY/WX    TMP DP  RH WIND       PRES   REMARKS
WAUSAU         CLOUDY    66  61  84 S7        30.08S
MOSINEE        LGT RAIN  64  63  94 SW6       30.11S
MARSHFIELD     LGT RAIN  65  61  87 SW9       30.10S
STEVENS POINT  DRIZZLE   64  60  87 SW9       30.11R
WAUPACA        LGT RAIN  69  62  78 SW8       30.10S
WAUTOMA        CLOUDY    67  62  84 CALM      30.12S
WISC RAPIDS    LGT RAIN  65  61  87 S6        30.12S
CAMP DOUGLAS   LGT RAIN  64  64 100 SE3       30.10S
$$

WIZ011>013-019>022-031-037>040-048>050-282000-
NORTHEAST WISCONSIN

CITY           SKY/WX    TMP DP  RH WIND       PRES   REMARKS
ANTIGO         CLOUDY    68  61  78 W9        30.09F
SHAWANO        CLOUDY    70  61  72 SW7       30.09S
OCONTO         CLOUDY    72  62  69 SW8       30.07S
STURGEON BAY   PTSUNNY   70  61  73 S10       30.10F
GREEN BAY      CLOUDY    69  61  75 SW8       30.09F
MANITOWOC      CLOUDY    66  59  78 MISG      30.11S
APPLETON       PTSUNNY   68  59  73 SW9       30.09S
CLINTONVILLE   CLOUDY    68  59  73 SW7       30.09S
OSHKOSH        CLOUDY    68  59  73 SW6       30.10F
$$

WIZ032>034-041-042-053>061-282000-
SOUTHWEST WISCONSIN

CITY           SKY/WX    TMP DP  RH WIND       PRES   REMARKS
LA CROSSE      LGT RAIN  64  61  90 E12       30.02F FOG
SPARTA         RAIN      65  63  93 E3        30.10S
VIROQUA        CLOUDY    62  62 100 E6        30.08F
BOSCOBEL       RAIN      65  62  90 E5        30.08F FOG
PRAIRIE DU CHI RAIN      63  60  91 E5        30.06F
PLATTEVILLE    CLOUDY    64  63  97 E12       30.07F
$$

WIZ056-057-062-063-064-067-068-282000-
SOUTH CENTRAL WISCONSIN

CITY           SKY/WX    TMP DP  RH WIND       PRES   REMARKS
REEDSBURG      LGT RAIN  63  62  96 CALM      30.11F
BARABOO/DELLS  LGT RAIN  64  60  86 CALM      30.12S
LONE ROCK      LGT RAIN  65  62  90 CALM      30.10F FOG
MINERAL POINT  LGT RAIN  64  63  94 CALM      30.12R
MADISON        LGT RAIN  66  60  81 SE5       30.11F
MIDDLETON      CLOUDY    67  61  78 CALM      30.11F
WATERTOWN      CLOUDY    68  63  85 SW5       30.11F
MONROE         CLOUDY    64  61  88 E5        30.12S
JANESVILLE     CLOUDY    70  61  73 CALM      30.11F
$$

WIZ051-052-058>065-066-070>072-282000-
SOUTHEAST WISCONSIN

CITY           SKY/WX    TMP DP  RH WIND       PRES   REMARKS
MILWAUKEE      CLOUDY    73  60  63 SW5       30.11F
WAUKESHA       SUNNY     68  61  77 S5        30.13F
MILWAUKEE/TIMM MOSUNNY   72  57  60 SW7       30.13F
RACINE         CLOUDY    69  58  67 S7        30.14S
BURLINGTON     CLOUDY    68  60  76 S3        30.12S
KENOSHA        CLOUDY    73  61  65 SW7       30.13S
FOND DU LAC    CLOUDY    69  61  75 SW6       30.11F
SHEBOYGAN      CLOUDY    71  61  70 SW8       30.11S
WEST BEND      CLOUDY    70  59  68 CALM      30.12S
JUNEAU         CLOUDY    67  61  80 S6        30.13S
$$

LSZ147-162-282000-
LAKE SUPERIOR

STATION/POSITION TIME  TEMP    WIND        PRES    WAVE
                       AIR SEA DIR/SP/G            HT/PER
                 (UTC) (F)     (DEG/KT/KT) (MB)    (FT/S)
W MID LAKE BUOY  1850   58 56  220/  8/ 10 1014.8F   0
DEVILS ISLAND    1900   64     250/  8/ 10 1014.8F
PORT WING        1800   70     290/ 11/ 22 1014.6
SAXON HARBOR     1800   75     200/  6/ 13 1014.9
$$

LMZ867-665-643>646-282000-
LAKE MICHIGAN

STATION/POSITION TIME  TEMP    WIND        PRES    WAVE
                       AIR SEA DIR/SP/G            HT/PER
                 (UTC) (F)     (DEG/KT/KT) (MB)    (FT/S)
CHAMBERS ISLAND  1800   70     190/  6/ 13 1018.3F
S GREEN BAY BUOY 1730   66 63  220/ 10/ 14 1020.3F
N MID LAKE BUOY  1850   64 64  200/ 17/ 23 1018.3F   3/ 5
NORTHPORT PIER   1800   65     150/  9/ 13 1018.3F
SISTER BAY       1819   71     190/ 13/ 15   N/A
ALGOMA LAKESHORE 1829          220/ 11/ 13   N/A
KEWAUNEE LAKESHO 1700   53     170/ 13/ 15 1018.7F
SHEBOYGAN LAKESH 1900   58     170/ 15/ 16 1019.8F
PORT WASHINGTON  1800   60      CALM  /  2 1020.7F
ATWATER BUOY     1900   57 49  180/  6/  8 1021.1F
MILWAUKEE LAKESH 1800   60     190/  2/  3   N/A
S MID LAKE BUOY  1850   68 69  170/  8/ 10 1020.2F   1/ 4
KENOSHA   LAKESH 1900   62     180/ 12/ 13 1019.6F
$$

TC  - TEMPERATURE IN CELSIUS
VSB - VISIBILITY IN STATUTE MILES
WCI - WIND CHILL INDEX
HX  - HEAT INDEX



USA.gov is the U.S. government's official web portal to all federal, state and local government web resources and services.